Notices

What's New in latest Release from April 7th, 2021:

- Updated Glossary, including Speed of Maximum Gust, and Total Hourly Precipitation

- Updated national and regional climate services offices contacts and prices information

- Addition of station inventory lists for 1981-2010, 1971-2000, and 1961-1990 Normals.

If you haven't already, please take our survey and provide feedback about our website: https://eccc.sondage-survey.ca/f/LanguageSelection.aspx?s=442ca660-fcf1-47c0-95a9-59707d6fd709

Hourly Data Report for April 09, 2021

KUGAARUK CLIMATE
NUNAVUT
Current Station Operator: ECCC - MSC

68°32'15.060" N
89°47'47.020" W
15.80 m
2303094
71407
NBB

Download Data

Hourly Data (April 2021)
Hourly Data Report for April 9, 2021
TIME
LST
Temp Definition
°C
Dew Point Definition
°C
Rel Hum Definition
%
Precip. Amount Definition
mm

Wind Dir Definition
10's deg

Wind Spd Definition
km/h
Visibility Definition
km
Stn Press Definition
kPa
Hmdx Definition


Wind Chill Definition


Weather Definition


00:00 -18.3 -21.0 79 0.0 7 28   101.72   -30 LegendNANA
01:00 -15.9 -18.7 79 0.0 16 44   101.58   -29 LegendNANA
02:00 -15.5 -17.7 84 0.4 14 55   101.34   -30 LegendNANA
03:00 -14.6 -16.7 84 0.2 13 43   101.24   -27 LegendNANA
04:00 -13.6 -15.6 85 0.5 14 55   101.06   -27 LegendNANA
05:00 -13.6 -15.6 85 0.0 14 59   100.96   -28 LegendNANA
06:00 -12.5 -14.5 85 0.3 14 47   100.84   -25 LegendNANA
07:00 -6.9 -8.5 88 0.2 17 46   100.68   -17 LegendNANA
08:00 -6.0 -7.7 88 0.0 19 55   100.60   -17 LegendNANA
09:00 -5.4 -7.3 87 0.0 19 54   100.54   -16 LegendNANA
10:00 -5.0 -7.1 86 0.3 20 53   100.56   -15 LegendNANA
11:00 -4.7 -7.4 82 0.0 21 31   100.63   -13 LegendNANA
12:00 -4.9 -7.3 83 0.0 21 38   100.65   -14 LegendNANA
13:00 -5.9 -8.5 82 0.0 23 35   100.71   -15 LegendNANA
14:00 -7.5 -10.8 78 0.0 24 36   100.78   -17 LegendNANA
15:00 -8.9 -12.4 76 0.0 24 42   100.87   -20 LegendNANA
16:00 -10.3 -13.5 77 0.0 24 44   100.91   -22 LegendNANA
17:00 -12.1 -15.3 77 0.0 25 32   101.12   -23 LegendNANA
18:00 -13.7 -16.9 77 0.0 24 26   101.22   -24 LegendNANA
19:00 -14.8 -17.8 78 0.0 25 40   101.30   -27 LegendNANA
20:00 -16.3 -19.1 79 0.0 24 36   101.35   -29 LegendNANA
21:00 -17.1 -20.1 78 0.0 24 33   101.48   -29 LegendNANA
22:00 -18.1 -21.0 78 0.0 24 34   101.45   -31 LegendNANA
23:00 -18.1 -21.4 75 0.0 23 20   101.55   -28 LegendNANA

Notes on Data Quality.

Legend

  • E = Estimated
  • M = Missing
  • NA = Not Available*
  • [empty] = Indicates an unobserved value
Date modified: